STARLINK-11119, 60121

Orbit data source: Space-Track

STARLINK-11119, 60121 is a payload satellite owned by SpaceX/Seattle (US) in LEO that was launched on Mon, 24 Jun 2024 UTC via an FALCON 9 launch vehicle from the Air Force Western Test Range (AFWTR). Payload-class satellites include a variety of spacecraft equipped with specific instruments for various scientific and technological missions. These include communications satellites like Starlink; space stations such as the ISS; scientific satellites like the Hubble; Earth observation satellites from companies like Planet Labs, Umbra, and HawkEye 360; GPS; miniature CubeSats for education and research; and military/defense satellites.

Loading next visibility...
Identifier
60121, 2024-118J
Orbit
LEO
Last TLE update
14 hours ago
Origin
Manufacturer
SpaceX/Seattle
Mission
Operational Commercial Communications
Bus & Motor
STARLINK V2M, Unknown motor
Mass
730 kg wet, ~700 kg dry
Launch date (UTC)
2024-06-24 (1 year ago)
Launch vehicle
FALCON 9
Launch site
Air Force Western Test Range (AFWTR)
Object type
Payload
Rocket body
Debris
Shape & HBR
Box + 2 Pan, 29 m
Radar Cross Section
33.884 m², Large (>1 m²)

Expand to show TLE details & history

TLE from 14 hours ago
0 STARLINK-11119
1 60121U 24118J   25181.85778977 -.00000087  00000-0  41311-5 0  9992
2 60121  53.1590  22.4522 0000751  83.8676 276.2427 15.69713898 58441
Epoch: 2025-06-30T20:35Z
TLE epoch observation values (Epoch: 2025-06-30T20:35:13.036Z)
Latitude
-0.00004°
Longitude
154.48628°
Altitude
360.576 km
Speed
7.694 km/s
True Right ascension
01h 29m 48s
True Declination
0° 00' 00"
Sunlit
Object was in daylight at epoch
Visualization orbit readout
Latitude
16.23705°
Longitude
164.17385°
Altitude
359.746 km
Speed
7.696 km/s
Apparent Right ascension
05h 13m 34s
Apparent Declination
-20° 18' 45"
Sunlit
Object is in daylight
Visualization observer readout
Local Sidereal Time
22:03:59
Azimuth
95.51° ESE
Elevation
-25.964°
Doppler factor
1
Orbital elements
Apogee altitude
360.482 km
Perigee altitude
359.47 km
Semi-major axis
6,738.113 km
Eccentricity
0.00008
Inclination
53.159°
RAAN
22.4522°
Arg. of periapsis
83.8676°
True anomaly
Unknown
Mean anomaly
276.2427°
Eccentric anomaly
Unknown
Mean motion
3.92406 °/min
Orbital period
91.74 mins
BSTAR
0.0000041311
Loading maneuver chart data...
Loading SW <> Apogee altitude chart data...
Loading historical data...
Loading historical data...
Loading historical data...
Loading historical data...
Loading historical data...
Loading historical data...
Loading historical data...

STARLINK-11119 Visibility forecast

Observer location: undefined°, undefined°

Span
Click to sort rows by Start time (UTC) header in descending order
Start Az.
Max El. time (UTC)
Max El. Az.
Max El.
End time (UTC)
End Az.
4 mins2025-07-01 16:40:32.565Z270.722° WNW2025-07-01 16:41:32.565Z304.293° NW30.425°2025-07-01 16:44:32.565Z35.128° NE
|